Regional Weather Roundup
Issued by NWS Bismarck, ND

Home | Current Version | Previous Version | Text Only | Print | Product List | Glossary On
Versions: 1 2 3 4 5 6 7 8 9 10 11 12 13 14 15 16 17 18 19 20 21 22 23 24 25 26 27 28 29 30 31 32 33 34 35 36 37 38 39 40 41 42 43 44 45 46 47 48 49 50
000
ASUS43 KBIS 181810
RWRBIS

NWR BROADCAST TEXT
NATIONAL WEATHER SERVICE BISMARCK ND
1200 PM CST THU JAN 18 2018

NOTE: "FAIR" INDICATES FEW OR NO CLOUDS BELOW 12,000 FEET WITH NO
SIGNIFICANT WEATHER AND/OR OBSTRUCTIONS TO VISIBILITY.


CITY           SKY/WX    TMP DP  RH WIND       PRES   REMARKS
WILLISTON      FAIR      30  22  72 SW10      29.73S
MINOT          FAIR      35  23  61 SW12      29.70F
MINOT AFB      CLOUDY    33  24  69 SW6       29.68F
BISMARCK       FAIR      27  20  75 CALM      29.79F
DICKINSON      FAIR      40  26  57 W8        29.73F
GARRISON         N/A     28  21  75 SW8       29.73F WCI  20
HETTINGER ARPT CLOUDY    37  24  59 W6        29.81F
JAMESTOWN      FAIR      32  23  69 W9        29.75F
CARRINGTON     FAIR      28  21  74 SW8       29.75F
HAZEN          FAIR      28  23  80 W7        29.78F
LINTON           N/A     28  23  80 CALM      29.82F
MANDAN         FAIR      30  23  74 SW9       29.77F
OAKES            N/A     28  23  80 S10       29.80F WCI  19
RUGBY          FAIR      23  18  80 SW8       29.71F WCI  14
STANLEY        FAIR      34  25  69 SW5G12    29.72F HAZE
TIOGA          FAIR      30  25  80 SW14      29.71F WCI  20
WATFORD CITY   FAIR      34  25  69 W5        29.73S
$$

CITY           SKY/WX    TMP DP  RH WIND       PRES   REMARKS
GRAND FORKS    CLOUDY    26  20  77 W5        29.77S
GRAND FORKS AF FAIR      28  17  64 CALM      29.76F
DEVILS LAKE    FAIR      23  17  78 SW6       29.72F WCI  16
FARGO          FAIR      30  23  75 SW7       29.78F
CANDO          FAIR      25  18  74 CALM      29.73F
CAVALIER         N/A     27  19  74 S8        29.74F WCI  18
GRAFTON        FAIR      27  21  80 S5        29.77F
GWINNER          N/A     30  23  74 SW10      29.80F
LANGDON        FAIR      21  18  86 SW6       29.70F WCI  14
ROLLA          FAIR      23  19  86 SW10      29.68F WCI  12
WALHALLA       FAIR      27  25  93 SE5       29.73F
$$

CITY           SKY/WX    TMP DP  RH WIND       PRES   REMARKS
ABERDEEN       PTSUNNY   32  25  75 S9        29.84F
MOBRIDGE       CLOUDY    32  24  72 SE3       29.80F
BUFFALO          N/A     41  26  55 W8        29.76F
RAPID CITY     CLOUDY    52  25  35 CALM      29.89F
GLASGOW        CLOUDY    27  22  81 SE8       29.69F WCI  19
SIDNEY         CLOUDY    33  24  69 S10       29.75F
WOLF POINT     CLOUDY    22  14  71 CALM      29.71F
GLENDIVE       CLOUDY    32  24  72 S15       29.77F
MILES CITY     CLOUDY    28  21  75 S10       29.80F WCI  19
BAKER          CLOUDY    39  27  62 SW15      29.80S
$$

CITY           SKY/WX    TMP DP  RH WIND       PRES   REMARKS
BILLINGS       CLOUDY    45  26  47 W29G38    29.81F
GREAT FALLS    PTSUNNY   48  31  51 SW14      29.72R
REGINA         PTSUNNY   28  21  74 SE8       29.56F
ESTEVAN        CLOUDY    30  23  74 SW10      29.65F
$$





USA.gov is the U.S. government's official web portal to all federal, state and local government web resources and services.